Regional Weather Roundup
Issued by NWS

Home | Current Version | Previous Version | Graphics & Text | Print | Product List | Glossary On
Versions: 1 2 3 4 5 6 7 8 9 10 11 12 13 14 15 16 17 18 19 20 21 22 23 24 25 26 27 28 29 30 31 32 33 34 35 36 37 38 39 40 41 42 43 44 45 46 47 48 49 50
028
ASUS45 KSLC 221310
RWRUT

UTAH REGIONAL WEATHER ROUNDUP
NATIONAL WEATHER SERVICE SALT LAKE CITY UT
600 AM MST WED NOV 22 2017

UTZ001>011-023>025-221400-

NORTHERN UTAH

CITY           SKY/WX    TMP DP  RH WIND       PRES   REMARKS
BRIGHAM CITY   PTCLDY    45  39  79 CALM      30.40R
HILL AFB       NOT AVBL
LOGAN          MOCLDY    45  42  89 CALM      30.38S
OGDEN          PTCLDY    46  38  73 S9        30.38F
SALT LAKE CITY PTCLDY    45  39  79 SE9       30.39S
TOOELE VALLEY  PTCLDY    39  36  87 S6        30.39F WCI  35
WENDOVER       CLEAR     37  33  85 W3        30.40S
HEBER CITY     PTSUNNY   32  32 100 CALM      30.46S
WEST JORDAN    CLOUDY    46  40  80 S5        30.41S

$$

UTZ011>015-024>027-221400-

CENTRAL/NORTHEAST UTAH

CITY           SKY/WX    TMP DP  RH WIND       PRES   REMARKS
PROVO AIRPORT  PTCLDY    35  32  88 NE3       30.45R
MOAB/CANYONLAN MOCLDY    30   9  41 CALM      30.42R
DELTA          PTCLDY    36  30  80 NE5       30.43S WCI  32
PRICE          PTCLDY    34  27  75 N7        30.44R WCI  28
RICHFIELD      CLEAR     30  30 100 CALM      30.49R
ROOSEVELT      CLOUDY    32  28  86 W6        30.43S WCI  26
VERNAL         CLOUDY    35  29  78 CALM      30.41S

$$

UTZ013>016-019>022-027-221400-

SOUTHERN UTAH

CITY           SKY/WX    TMP DP  RH WIND       PRES   REMARKS
BRYCE CANYON   PTCLDY    25  23  92 W7        30.50S WCI  17
CEDAR CITY     PTCLDY    33  30  88 CALM      30.41S
MILFORD        PTCLDY    31  28  89 N5        30.42R WCI  26
ST GEORGE      MOSUNNY   42  17  36 CALM      30.34S
HANKSVILLE     MOCLDY    30  10  43 CALM      30.46R
KANAB          CLEAR     39  30  70 NE7       30.42R WCI  34
BLANDING         N/A     40  28  63 N7        30.47S

$$

REGIONAL REPORTS     COLORADO/ARIZONA

CITY           SKY/WX    TMP DP  RH WIND       PRES   REMARKS
CRAIG, CO      CLOUDY    33  31  92 CALM      30.45R
GRAND JUNCTION CLOUDY    36  29  75 CALM      30.43R
RIFLE, CO      CLOUDY    30  29  96 CALM      30.48R
MONTROSE, CO   CLOUDY    30  26  85 SE5       30.48S WCI  25
CORTEZ, CO     CLOUDY    31  24  75 NE8       30.41S WCI  23
COLORADO CITY    N/A     32  21  64 SE3       30.41R
PAGE, AZ       MOCLDY    44  23  43 SW6       30.38R
GRAND CANYON   PTCLDY    29  22  75 E3        30.43S
KINGMAN, AZ    PTCLDY    50  23  34 NE7       30.27S
FLAGSTAFF, AZ  CLEAR     32  24  72 CALM      30.43S

$$

REGIONAL REPORTS    NEVADA/IDAHO/WYOMING

CITY           SKY/WX    TMP DP  RH WIND       PRES   REMARKS
LAS VEGAS, NV  PTCLDY    55  33  43 W3        30.25R
ELY, NY        CLEAR     28  25  88 S12       30.46S WCI  18
ELKO, NV       FOG       32  31  96 CALM      30.40S VSB 1/2
POCATELLO, ID  CLOUDY    42  41  96 NW8       30.35R
BURLEY, ID     MOCLDY    42  41  96 N5        30.32S
FORT BRIDGER,    N/A     43  37  80 SW8       30.46S
EVANSTON, WY   CLOUDY    41  36  82 SW12      30.45F
ROCK SPRINGS,  CLOUDY    41  34  76 W20       30.38F
KEMMERER, WY   CLOUDY    39  36  87 SW7       30.44S WCI  34

$$




USA.gov is the U.S. government's official web portal to all federal, state and local government web resources and services.